KLM77C LDSP-EHAM

Flight info

Callsign KLM77C
Flight time 2h 3m
Altitude 34000
Route ZDA DCT EBITA DCT PUL DCT NAKIT DCT PEVAL DCT BRENO DCT KONIN M726 MAH DCT ASPAT DCT MASEK DCT MAPOX DCT NORKU
Aircraft B738/M-SDE2E3FGHIRWXY/LB1

Departure

Time 2026-04-29 12:45
Airport Split Saint Jerome Airport (LDSP)

Arrival

Time 2026-04-29 14:48
Airport Amsterdam Airport Schiphol (EHAM)
Time Latitude Longitude Altitude Speed Heading
2026-04-29 12:23 43.53584 16.29697 67 ft 0 kts 98°
2026-04-29 12:39 43.53584 16.29698 67 ft 0 kts 98°
2026-04-29 12:39 43.53579 16.29702 67 ft 1 kts 149°
2026-04-29 12:40 43.53572 16.29695 60 ft 1 kts 230°
2026-04-29 12:40 43.53567 16.29664 63 ft 5 kts 274°
2026-04-29 12:40 43.53593 16.29622 67 ft 7 kts 321°
2026-04-29 12:40 43.53642 16.29579 63 ft 10 kts 344°
2026-04-29 12:41 43.53699 16.29540 73 ft 10 kts 285°
2026-04-29 12:41 43.53689 16.29441 69 ft 11 kts 250°
2026-04-29 12:41 43.53646 16.29346 83 ft 13 kts 233°
2026-04-29 12:41 43.53565 16.29199 71 ft 23 kts 232°
2026-04-29 12:42 43.53468 16.29025 80 ft 23 kts 233°
2026-04-29 12:42 43.53374 16.28856 79 ft 22 kts 232°
2026-04-29 12:42 43.53288 16.28700 80 ft 16 kts 232°
2026-04-29 12:42 43.53226 16.28629 73 ft 10 kts 197°
2026-04-29 12:43 43.53207 16.28576 71 ft 6 kts 321°
2026-04-29 12:43 43.53232 16.28600 75 ft 4 kts 51°
2026-04-29 12:43 43.53234 16.28603 75 ft 0 kts 52°
2026-04-29 12:43 43.53234 16.28604 75 ft 1 kts 52°
2026-04-29 12:44 43.53283 16.28691 72 ft 35 kts 52°
2026-04-29 12:44 43.53580 16.29229 77 ft 104 kts 52°
2026-04-29 12:44 43.54147 16.30252 61 ft 162 kts 53°
2026-04-29 12:44 43.54876 16.31570 608 ft 171 kts 54°
2026-04-29 12:45 43.55422 16.33015 1372 ft 177 kts 90°
2026-04-29 12:45 43.55060 16.34586 2022 ft 185 kts 129°
2026-04-29 12:45 43.54051 16.35769 2791 ft 190 kts 146°
2026-04-29 12:45 43.52923 16.36677 3557 ft 191 kts 153°
2026-04-29 12:46 43.51709 16.37544 4135 ft 200 kts 153°
2026-04-29 12:46 43.50464 16.38450 4714 ft 205 kts 153°
2026-04-29 12:46 43.49193 16.39389 5284 ft 209 kts 153°
2026-04-29 12:46 43.47898 16.40354 5462 ft 212 kts 153°
2026-04-29 12:47 43.46554 16.41022 5479 ft 207 kts 180°
2026-04-29 12:47 43.45202 16.40457 5525 ft 212 kts 220°
2026-04-29 12:47 43.44191 16.38858 5736 ft 234 kts 232°
2026-04-29 12:47 43.43155 16.36978 5983 ft 259 kts 232°
2026-04-29 12:48 43.42055 16.34975 6626 ft 266 kts 232°
2026-04-29 12:48 43.40927 16.32928 7433 ft 268 kts 233°
2026-04-29 12:48 43.39791 16.30878 8231 ft 271 kts 232°
2026-04-29 12:48 43.38640 16.28809 9064 ft 274 kts 233°
2026-04-29 12:49 43.37469 16.26713 9910 ft 277 kts 233°
2026-04-29 12:49 43.36305 16.24567 10497 ft 288 kts 239°
2026-04-29 12:49 43.35645 16.21864 10656 ft 312 kts 265°
2026-04-29 12:49 43.35963 16.18836 10847 ft 336 kts 292°
2026-04-29 12:50 43.37369 16.16152 11013 ft 360 kts 315°
2026-04-29 12:50 43.39351 16.13891 11274 ft 377 kts 320°
2026-04-29 12:50 43.41461 16.11686 11841 ft 382 kts 321°
2026-04-29 12:50 43.43560 16.09521 12560 ft 383 kts 321°
2026-04-29 12:51 43.45686 16.07302 13324 ft 384 kts 320°
2026-04-29 12:51 43.47810 16.05047 14001 ft 386 kts 320°
2026-04-29 12:51 43.49931 16.02760 14594 ft 389 kts 319°
2026-04-29 12:51 43.52065 16.00437 15186 ft 392 kts 319°
2026-04-29 12:52 43.54203 15.98093 15781 ft 394 kts 319°
2026-04-29 12:52 43.56355 15.95724 16366 ft 397 kts 319°
2026-04-29 12:52 43.58521 15.93334 16910 ft 401 kts 319°
2026-04-29 12:52 43.60703 15.90922 17468 ft 403 kts 319°
2026-04-29 12:53 43.62905 15.88487 18008 ft 406 kts 319°
2026-04-29 12:53 43.65116 15.86039 18507 ft 409 kts 319°
2026-04-29 12:53 43.67343 15.83571 18975 ft 411 kts 319°
2026-04-29 12:53 43.69572 15.81099 19469 ft 412 kts 318°
2026-04-29 12:54 43.71815 15.78610 19939 ft 415 kts 318°
2026-04-29 12:54 43.74078 15.76095 20389 ft 417 kts 318°
2026-04-29 12:54 43.76339 15.73580 20850 ft 419 kts 318°
2026-04-29 12:54 43.78613 15.71048 21309 ft 421 kts 318°
2026-04-29 12:55 43.80899 15.68500 21752 ft 423 kts 318°
2026-04-29 12:55 43.82420 15.66803 22030 ft 424 kts 318°
2026-04-29 12:55 43.85509 15.63354 22575 ft 427 kts 318°
2026-04-29 12:55 43.87039 15.61644 22840 ft 429 kts 318°
2026-04-29 12:56 43.90133 15.58182 23362 ft 432 kts 318°
2026-04-29 12:56 43.92469 15.55564 23732 ft 434 kts 318°
2026-04-29 12:56 43.94822 15.52926 24046 ft 435 kts 318°
2026-04-29 12:56 43.96391 15.51165 24255 ft 437 kts 318°
2026-04-29 12:57 43.98764 15.48500 24565 ft 439 kts 318°
2026-04-29 12:57 44.01140 15.45827 24881 ft 440 kts 318°
2026-04-29 12:57 44.03524 15.43143 25182 ft 442 kts 318°
2026-04-29 12:57 44.05917 15.40446 25484 ft 444 kts 318°
2026-04-29 12:58 44.08327 15.37725 25782 ft 445 kts 317°
2026-04-29 12:58 44.10501 15.34694 26017 ft 444 kts 304°
2026-04-29 12:58 44.12219 15.31125 26328 ft 443 kts 302°
2026-04-29 12:58 44.13916 15.27542 26673 ft 443 kts 302°
2026-04-29 12:59 44.15627 15.23977 27068 ft 442 kts 302°
2026-04-29 12:59 44.17347 15.20429 27505 ft 440 kts 302°
2026-04-29 12:59 44.19061 15.16913 27912 ft 438 kts 303°
2026-04-29 12:59 44.20779 15.13398 28297 ft 438 kts 303°
2026-04-29 13:00 44.22492 15.09893 28689 ft 437 kts 303°
2026-04-29 13:00 44.24196 15.06402 29092 ft 435 kts 303°
2026-04-29 13:00 44.25876 15.02956 29502 ft 434 kts 303°
2026-04-29 13:00 44.27569 14.99478 29887 ft 433 kts 303°
2026-04-29 13:01 44.29260 14.95997 30234 ft 433 kts 302°
2026-04-29 13:01 44.30945 14.92523 30544 ft 431 kts 302°
2026-04-29 13:01 44.32628 14.89051 30894 ft 430 kts 302°
2026-04-29 13:01 44.34297 14.85604 31220 ft 429 kts 302°
2026-04-29 13:02 44.35969 14.82146 31528 ft 428 kts 302°
2026-04-29 13:02 44.37635 14.78698 31841 ft 427 kts 302°
2026-04-29 13:02 44.39368 14.75331 32175 ft 427 kts 307°
2026-04-29 13:02 44.41253 14.72116 32310 ft 430 kts 308°
2026-04-29 13:03 44.43184 14.68951 32928 ft 421 kts 308°
2026-04-29 13:03 44.45086 14.65866 33387 ft 418 kts 308°
2026-04-29 13:03 44.46984 14.62771 33480 ft 422 kts 308°
2026-04-29 13:04 44.50808 14.56469 33852 ft 424 kts 308°
2026-04-29 13:04 44.52702 14.53325 34189 ft 421 kts 308°
2026-04-29 13:04 44.54566 14.50220 34458 ft 420 kts 308°
2026-04-29 13:04 44.56441 14.47088 34648 ft 420 kts 307°
2026-04-29 13:05 44.58318 14.43948 34834 ft 420 kts 307°
2026-04-29 13:05 44.60201 14.40796 35063 ft 419 kts 307°
2026-04-29 13:05 44.62070 14.37663 35268 ft 419 kts 307°
2026-04-29 13:05 44.63941 14.34524 35472 ft 419 kts 307°
2026-04-29 13:06 44.65809 14.31386 35686 ft 418 kts 307°
2026-04-29 13:06 44.67672 14.28253 35899 ft 417 kts 307°
2026-04-29 13:06 44.69537 14.25115 36070 ft 417 kts 307°
2026-04-29 13:07 44.73273 14.18815 36071 ft 419 kts 307°
2026-04-29 13:07 44.76968 14.12572 36071 ft 416 kts 307°
2026-04-29 13:08 44.80656 14.06327 36076 ft 413 kts 307°
2026-04-29 13:08 44.84329 14.00093 36076 ft 412 kts 307°
2026-04-29 13:09 44.87982 13.93880 36080 ft 411 kts 307°
2026-04-29 13:09 44.91671 13.87768 36078 ft 412 kts 309°
2026-04-29 13:10 44.95519 13.81758 36081 ft 413 kts 310°
2026-04-29 13:10 44.99380 13.75714 36077 ft 414 kts 309°
2026-04-29 13:11 45.03228 13.69632 36077 ft 415 kts 309°
2026-04-29 13:11 45.07054 13.63553 36073 ft 416 kts 309°
2026-04-29 13:12 45.10907 13.57415 36075 ft 417 kts 309°
2026-04-29 13:12 45.14753 13.51277 36075 ft 417 kts 309°
2026-04-29 13:13 45.18610 13.45109 36075 ft 417 kts 309°
2026-04-29 13:13 45.22432 13.38927 36080 ft 416 kts 309°
2026-04-29 13:14 45.26233 13.32735 36075 ft 416 kts 309°
2026-04-29 13:14 45.30010 13.26588 36074 ft 415 kts 310°
2026-04-29 13:15 45.34354 13.21146 36092 ft 418 kts 320°
2026-04-29 13:15 45.39013 13.16179 36092 ft 418 kts 320°
2026-04-29 13:16 45.43661 13.11204 36091 ft 418 kts 320°
2026-04-29 13:16 45.48262 13.06232 36098 ft 417 kts 320°
2026-04-29 13:17 45.52906 13.01185 36098 ft 417 kts 320°
2026-04-29 13:17 45.57484 12.96196 36098 ft 416 kts 319°
2026-04-29 13:18 45.62086 12.91169 36105 ft 416 kts 319°
2026-04-29 13:18 45.66679 12.86142 36105 ft 415 kts 319°
2026-04-29 13:19 45.71262 12.81114 36113 ft 415 kts 319°
2026-04-29 13:19 45.75839 12.76084 36122 ft 415 kts 319°
2026-04-29 13:20 45.80391 12.71070 36146 ft 415 kts 319°
2026-04-29 13:20 45.84976 12.66008 36130 ft 416 kts 319°
2026-04-29 13:21 45.89563 12.60934 36134 ft 416 kts 319°
2026-04-29 13:21 45.94141 12.55860 36138 ft 415 kts 319°
2026-04-29 13:22 45.98713 12.50781 36140 ft 415 kts 319°
2026-04-29 13:22 46.03279 12.45697 36131 ft 414 kts 319°
2026-04-29 13:23 46.07805 12.40649 36137 ft 414 kts 319°
2026-04-29 13:23 46.12359 12.35556 36140 ft 414 kts 319°
2026-04-29 13:24 46.16922 12.30443 36139 ft 415 kts 319°
2026-04-29 13:24 46.21461 12.25346 36133 ft 416 kts 319°
2026-04-29 13:25 46.26024 12.20211 36150 ft 416 kts 319°
2026-04-29 13:25 46.32873 12.12483 36148 ft 416 kts 319°
2026-04-29 13:26 46.37443 12.07312 36151 ft 417 kts 319°
2026-04-29 13:26 46.41982 12.02165 36165 ft 417 kts 319°
2026-04-29 13:27 46.46552 11.96971 36166 ft 417 kts 319°
2026-04-29 13:27 46.51150 11.91734 36174 ft 417 kts 319°
2026-04-29 13:28 46.55680 11.86565 36180 ft 417 kts 318°
2026-04-29 13:28 46.60236 11.81353 36177 ft 416 kts 318°
2026-04-29 13:29 46.64779 11.76144 36169 ft 416 kts 318°
2026-04-29 13:29 46.69323 11.70923 36151 ft 416 kts 318°
2026-04-29 13:30 46.73867 11.65691 36156 ft 416 kts 318°
2026-04-29 13:30 46.78405 11.60453 36150 ft 415 kts 318°
2026-04-29 13:31 46.82904 11.55249 36158 ft 415 kts 318°
2026-04-29 13:31 46.87431 11.49999 36153 ft 416 kts 318°
2026-04-29 13:32 46.91966 11.44732 36149 ft 416 kts 318°
2026-04-29 13:32 46.96718 11.39904 36152 ft 422 kts 331°
2026-04-29 13:33 47.02418 11.37542 36143 ft 434 kts 350°
2026-04-29 13:33 47.08461 11.37388 36097 ft 436 kts 354°
2026-04-29 13:34 47.14497 11.37454 36158 ft 434 kts 354°
2026-04-29 13:34 47.20553 11.37455 36138 ft 436 kts 354°
2026-04-29 13:35 47.26637 11.37407 36137 ft 437 kts 353°
2026-04-29 13:35 47.32730 11.37344 36145 ft 438 kts 353°
2026-04-29 13:36 47.38842 11.37279 36143 ft 440 kts 353°
2026-04-29 13:36 47.44983 11.37215 36145 ft 442 kts 353°
2026-04-29 13:37 47.51132 11.37155 36147 ft 441 kts 353°
2026-04-29 13:37 47.57271 11.37093 36146 ft 441 kts 353°
2026-04-29 13:38 47.63403 11.37030 36162 ft 441 kts 354°
2026-04-29 13:38 47.69535 11.36966 36171 ft 441 kts 354°
2026-04-29 13:39 47.75626 11.36904 36173 ft 440 kts 354°
2026-04-29 13:39 47.81736 11.36840 36176 ft 439 kts 354°
2026-04-29 13:40 47.87836 11.36721 36185 ft 437 kts 352°
2026-04-29 13:40 47.93908 11.36167 36186 ft 435 kts 351°
2026-04-29 13:41 47.98933 11.35675 36189 ft 435 kts 352°
2026-04-29 13:41 48.05963 11.35068 36185 ft 435 kts 352°
2026-04-29 13:42 48.10988 11.34310 36191 ft 432 kts 348°
2026-04-29 13:42 48.16932 11.33053 36190 ft 432 kts 348°
2026-04-29 13:43 48.22863 11.31864 36190 ft 433 kts 348°
2026-04-29 13:43 48.28695 11.29877 36182 ft 426 kts 335°
2026-04-29 13:44 48.34179 11.26462 36207 ft 427 kts 334°
2026-04-29 13:44 48.39667 11.22989 36202 ft 428 kts 334°
2026-04-29 13:45 48.45182 11.19537 36206 ft 430 kts 334°
2026-04-29 13:45 48.50720 11.16090 36209 ft 431 kts 335°
2026-04-29 13:46 48.56239 11.12654 36207 ft 432 kts 335°
2026-04-29 13:46 48.61808 11.09179 36209 ft 433 kts 335°
2026-04-29 13:47 48.67375 11.05696 36220 ft 433 kts 335°
2026-04-29 13:47 48.72948 11.02200 36211 ft 434 kts 335°
2026-04-29 13:48 48.78543 10.98682 36219 ft 434 kts 335°
2026-04-29 13:48 48.84099 10.95180 36216 ft 435 kts 335°
2026-04-29 13:49 48.89684 10.91652 36231 ft 435 kts 335°
2026-04-29 13:49 48.95281 10.88107 36238 ft 435 kts 336°
2026-04-29 13:50 49.00880 10.84552 36250 ft 435 kts 336°
2026-04-29 13:50 49.06477 10.80989 36258 ft 435 kts 336°
2026-04-29 13:51 49.12074 10.77418 36268 ft 435 kts 336°
2026-04-29 13:51 49.17665 10.73842 36267 ft 436 kts 336°
2026-04-29 13:52 49.23196 10.70170 36278 ft 435 kts 335°
2026-04-29 13:52 49.25774 10.68333 36277 ft 436 kts 334°
2026-04-29 13:53 49.31250 10.64363 36280 ft 436 kts 334°
2026-04-29 13:53 49.36745 10.60391 36278 ft 437 kts 335°
2026-04-29 13:54 49.42247 10.56434 36273 ft 437 kts 335°
2026-04-29 13:54 49.47773 10.52464 36267 ft 438 kts 335°
2026-04-29 13:55 49.53273 10.48503 36263 ft 438 kts 335°
2026-04-29 13:55 49.58797 10.44515 36262 ft 438 kts 335°
2026-04-29 13:56 49.64332 10.40509 36265 ft 439 kts 336°
2026-04-29 13:56 49.69823 10.36523 36268 ft 438 kts 336°
2026-04-29 13:57 49.75346 10.32504 36273 ft 438 kts 336°
2026-04-29 13:57 49.80857 10.28485 36268 ft 438 kts 336°
2026-04-29 13:58 49.86367 10.24455 36279 ft 437 kts 336°
2026-04-29 13:58 49.91870 10.20421 36274 ft 437 kts 336°
2026-04-29 13:59 49.97355 10.16390 36275 ft 436 kts 337°
2026-04-29 13:59 50.02836 10.12351 36276 ft 436 kts 337°
2026-04-29 14:00 50.08280 10.08329 36283 ft 435 kts 337°
2026-04-29 14:00 50.13761 10.04270 36283 ft 435 kts 337°
2026-04-29 14:01 50.19230 10.00210 36284 ft 435 kts 337°
2026-04-29 14:01 50.24698 9.96140 36294 ft 435 kts 337°
2026-04-29 14:02 50.30172 9.92055 36295 ft 436 kts 338°
2026-04-29 14:02 50.35645 9.87959 36300 ft 436 kts 338°
2026-04-29 14:03 50.41096 9.83871 36299 ft 437 kts 338°
2026-04-29 14:03 50.46577 9.79749 36304 ft 437 kts 338°
2026-04-29 14:04 50.52069 9.75607 36308 ft 437 kts 338°
2026-04-29 14:04 50.57561 9.71455 36306 ft 438 kts 338°
2026-04-29 14:05 50.63051 9.67294 36306 ft 437 kts 338°
2026-04-29 14:05 50.68497 9.63156 36317 ft 437 kts 338°
2026-04-29 14:06 50.73642 9.57950 36321 ft 444 kts 323°
2026-04-29 14:06 50.77829 9.50676 36325 ft 450 kts 314°
2026-04-29 14:07 50.81765 9.42962 36324 ft 450 kts 314°
2026-04-29 14:07 50.85714 9.35264 36327 ft 450 kts 314°
2026-04-29 14:08 50.89655 9.27645 36324 ft 450 kts 314°
2026-04-29 14:08 50.93621 9.19983 36331 ft 450 kts 314°
2026-04-29 14:09 50.97596 9.12278 36341 ft 450 kts 314°
2026-04-29 14:09 51.01558 9.04574 36332 ft 451 kts 314°
2026-04-29 14:10 51.05512 8.96863 36325 ft 454 kts 314°
2026-04-29 14:10 51.09510 8.89040 36337 ft 455 kts 314°
2026-04-29 14:11 51.13498 8.81237 36313 ft 452 kts 316°
2026-04-29 14:11 51.17768 8.73968 36325 ft 448 kts 320°
2026-04-29 14:12 51.22169 8.66877 36332 ft 452 kts 320°
2026-04-29 14:12 51.26588 8.59701 36330 ft 455 kts 319°
2026-04-29 14:13 51.31013 8.52415 36332 ft 457 kts 319°
2026-04-29 14:13 51.35400 8.45136 36335 ft 457 kts 319°
2026-04-29 14:14 51.39808 8.37796 36326 ft 457 kts 319°
2026-04-29 14:14 51.44208 8.30449 36336 ft 456 kts 319°
2026-04-29 14:15 51.48600 8.23097 36331 ft 455 kts 319°
2026-04-29 14:15 51.52954 8.15786 36334 ft 452 kts 319°
2026-04-29 14:16 51.57298 8.08472 36324 ft 450 kts 319°
2026-04-29 14:16 51.61609 8.01192 36324 ft 449 kts 319°
2026-04-29 14:17 51.65891 7.93942 36333 ft 449 kts 319°
2026-04-29 14:17 51.70192 7.86639 36332 ft 449 kts 319°
2026-04-29 14:18 51.74517 7.79274 36346 ft 454 kts 319°
2026-04-29 14:18 51.78887 7.71810 36334 ft 458 kts 319°
2026-04-29 14:19 51.83241 7.64345 36349 ft 460 kts 319°
2026-04-29 14:19 51.87634 7.56791 36353 ft 460 kts 319°
2026-04-29 14:20 51.92017 7.49231 36357 ft 460 kts 319°
2026-04-29 14:20 51.96400 7.41649 36249 ft 461 kts 319°
2026-04-29 14:21 51.98576 7.37881 35672 ft 465 kts 319°
2026-04-29 14:21 52.00781 7.34052 35029 ft 464 kts 319°
2026-04-29 14:21 52.02985 7.30218 34377 ft 464 kts 319°
2026-04-29 14:21 52.05193 7.26373 33602 ft 466 kts 319°
2026-04-29 14:22 52.07406 7.22512 32854 ft 467 kts 319°
2026-04-29 14:22 52.09620 7.18644 32118 ft 467 kts 319°
2026-04-29 14:22 52.11833 7.14772 31378 ft 468 kts 319°
2026-04-29 14:22 52.14052 7.10883 30615 ft 470 kts 319°
2026-04-29 14:23 52.16279 7.06971 29725 ft 471 kts 319°
2026-04-29 14:23 52.18512 7.03046 28843 ft 472 kts 319°
2026-04-29 14:23 52.20729 6.99140 28431 ft 462 kts 318°
2026-04-29 14:23 52.22860 6.95275 27859 ft 459 kts 316°
2026-04-29 14:24 52.24863 6.91304 27363 ft 459 kts 314°
2026-04-29 14:24 52.26877 6.87179 26735 ft 468 kts 313°
2026-04-29 14:24 52.28908 6.83008 26128 ft 471 kts 314°
2026-04-29 14:24 52.30955 6.78849 25515 ft 466 kts 314°
2026-04-29 14:25 52.32981 6.74763 24925 ft 460 kts 314°
2026-04-29 14:25 52.34989 6.70724 24343 ft 455 kts 314°
2026-04-29 14:25 52.36985 6.66709 23715 ft 452 kts 314°
2026-04-29 14:25 52.38964 6.62721 23053 ft 449 kts 313°
2026-04-29 14:26 52.40917 6.58775 22465 ft 443 kts 313°
2026-04-29 14:26 52.42826 6.54912 21892 ft 438 kts 313°
2026-04-29 14:26 52.44736 6.51038 21328 ft 434 kts 313°
2026-04-29 14:26 52.46389 6.46893 20734 ft 438 kts 297°
2026-04-29 14:27 52.47220 6.42093 20206 ft 441 kts 279°
2026-04-29 14:27 52.47483 6.37090 19667 ft 439 kts 276°
2026-04-29 14:27 52.47620 6.33712 19281 ft 437 kts 276°
2026-04-29 14:28 52.48020 6.23891 18088 ft 433 kts 277°
2026-04-29 14:28 52.48245 6.18990 17492 ft 429 kts 277°
2026-04-29 14:28 52.48477 6.14139 16923 ft 424 kts 277°
2026-04-29 14:28 52.48711 6.09345 16369 ft 419 kts 277°
2026-04-29 14:29 52.48940 6.04615 15805 ft 414 kts 277°
2026-04-29 14:29 52.49165 5.99901 15099 ft 415 kts 276°
2026-04-29 14:29 52.49388 5.95176 14475 ft 413 kts 276°
2026-04-29 14:29 52.49605 5.90502 13910 ft 409 kts 276°
2026-04-29 14:30 52.49817 5.85899 13607 ft 394 kts 276°
2026-04-29 14:30 52.50015 5.81533 13441 ft 372 kts 276°
2026-04-29 14:30 52.50202 5.77420 13288 ft 351 kts 276°
2026-04-29 14:30 52.50378 5.73515 13167 ft 333 kts 276°
2026-04-29 14:31 52.50544 5.69866 13038 ft 317 kts 277°
2026-04-29 14:31 52.50705 5.66291 12829 ft 305 kts 277°
2026-04-29 14:31 52.50859 5.62831 12366 ft 304 kts 276°
2026-04-29 14:31 52.51009 5.59371 11884 ft 304 kts 274°
2026-04-29 14:32 52.50725 5.56000 11425 ft 304 kts 249°
2026-04-29 14:32 52.49748 5.52937 10999 ft 302 kts 238°
2026-04-29 14:32 52.48666 5.50012 10590 ft 299 kts 237°
2026-04-29 14:32 52.47575 5.47110 10150 ft 298 kts 237°
2026-04-29 14:33 52.46494 5.44231 9710 ft 295 kts 237°
2026-04-29 14:33 52.45421 5.41362 9242 ft 294 kts 237°
2026-04-29 14:33 52.44361 5.38515 8816 ft 292 kts 237°
2026-04-29 14:33 52.43309 5.35680 8333 ft 290 kts 237°
2026-04-29 14:34 52.42276 5.32896 7945 ft 288 kts 237°
2026-04-29 14:34 52.41240 5.30101 7537 ft 286 kts 237°
2026-04-29 14:34 52.40209 5.27316 7120 ft 285 kts 237°
2026-04-29 14:34 52.39196 5.24586 6734 ft 283 kts 236°
2026-04-29 14:35 52.38161 5.21800 6332 ft 284 kts 236°
2026-04-29 14:35 52.37142 5.19061 6106 ft 282 kts 236°
2026-04-29 14:35 52.36126 5.16329 5881 ft 280 kts 236°
2026-04-29 14:35 52.35110 5.13603 5642 ft 280 kts 236°
2026-04-29 14:36 52.34102 5.10900 5394 ft 279 kts 235°
2026-04-29 14:36 52.33094 5.08182 5095 ft 279 kts 236°
2026-04-29 14:36 52.32128 5.05434 4862 ft 278 kts 237°
2026-04-29 14:36 52.31173 5.02692 4632 ft 277 kts 238°
2026-04-29 14:37 52.30220 4.99965 4424 ft 277 kts 238°
2026-04-29 14:37 52.29263 4.97230 4386 ft 276 kts 237°
2026-04-29 14:37 52.28314 4.94512 4343 ft 274 kts 237°
2026-04-29 14:37 52.27372 4.91811 4337 ft 272 kts 237°
2026-04-29 14:38 52.26438 4.89143 4345 ft 271 kts 238°
2026-04-29 14:38 52.25492 4.86438 4351 ft 277 kts 237°
2026-04-29 14:38 52.24533 4.83695 4361 ft 279 kts 237°
2026-04-29 14:38 52.23571 4.80946 4349 ft 276 kts 237°
2026-04-29 14:39 52.22640 4.78275 4314 ft 265 kts 237°
2026-04-29 14:39 52.21755 4.75713 4152 ft 254 kts 237°
2026-04-29 14:39 52.20898 4.73254 3867 ft 252 kts 237°
2026-04-29 14:39 52.20036 4.70795 3562 ft 249 kts 237°
2026-04-29 14:40 52.19174 4.68354 3333 ft 242 kts 238°
2026-04-29 14:40 52.18353 4.66048 3206 ft 231 kts 237°
2026-04-29 14:40 52.17552 4.63801 3068 ft 230 kts 237°
2026-04-29 14:40 52.16749 4.61533 2997 ft 231 kts 238°
2026-04-29 14:41 52.15944 4.59284 2974 ft 227 kts 237°
2026-04-29 14:41 52.15151 4.57088 2957 ft 220 kts 237°
2026-04-29 14:41 52.14402 4.54984 2965 ft 210 kts 237°
2026-04-29 14:41 52.13678 4.52927 2984 ft 209 kts 240°
2026-04-29 14:42 52.13318 4.50640 2907 ft 210 kts 276°
2026-04-29 14:42 52.13787 4.48522 2654 ft 198 kts 315°
2026-04-29 14:42 52.14839 4.47113 2328 ft 193 kts 332°
2026-04-29 14:42 52.16014 4.46296 2023 ft 181 kts
2026-04-29 14:43 52.17184 4.46809 2008 ft 178 kts 32°
2026-04-29 14:43 52.18271 4.47711 1975 ft 170 kts 32°
2026-04-29 14:43 52.19164 4.48833 1988 ft 158 kts 59°
2026-04-29 14:43 52.19813 4.50330 1991 ft 165 kts 56°
2026-04-29 14:44 52.20491 4.51833 1977 ft 158 kts 58°
2026-04-29 14:44 52.21069 4.53249 1951 ft 146 kts 59°
2026-04-29 14:44 52.21610 4.54635 1984 ft 145 kts 61°
2026-04-29 14:44 52.22146 4.56030 1984 ft 144 kts 61°
2026-04-29 14:45 52.22678 4.57409 2018 ft 144 kts 58°
2026-04-29 14:45 52.23229 4.58798 2007 ft 145 kts 61°
2026-04-29 14:45 52.23750 4.60217 1927 ft 145 kts 60°
2026-04-29 14:45 52.24277 4.61607 1781 ft 142 kts 60°
2026-04-29 14:46 52.24793 4.62959 1563 ft 138 kts 60°
2026-04-29 14:46 52.25302 4.64292 1380 ft 138 kts 60°
2026-04-29 14:46 52.25811 4.65620 1213 ft 140 kts 60°
2026-04-29 14:46 52.26321 4.66956 998 ft 136 kts 60°
2026-04-29 14:47 52.26814 4.68241 764 ft 135 kts 59°
2026-04-29 14:47 52.27321 4.69566 579 ft 138 kts 59°
2026-04-29 14:47 52.27828 4.70900 395 ft 139 kts 59°
2026-04-29 14:47 52.28337 4.72225 216 ft 136 kts 58°
2026-04-29 14:48 52.28845 4.73546 48 ft 139 kts 58°
2026-04-29 14:48 52.29329 4.74813 -2 ft 110 kts 58°
2026-04-29 14:48 52.29624 4.75580 -2 ft 49 kts 58°
2026-04-29 14:48 52.29785 4.75807 -3 ft 26 kts 27°
2026-04-29 14:49 52.29923 4.75925 -2 ft 16 kts 28°
2026-04-29 14:49 52.30009 4.76035 -2 ft 16 kts 56°
2026-04-29 14:49 52.30068 4.76188 -2 ft 16 kts 58°
2026-04-29 14:49 52.30131 4.76352 -2 ft 19 kts 58°
2026-04-29 14:50 52.30201 4.76533 -2 ft 19 kts 58°
2026-04-29 14:50 52.30268 4.76709 -2 ft 18 kts 58°
2026-04-29 14:50 52.30332 4.76878 -2 ft 17 kts 58°
2026-04-29 14:50 52.30395 4.77040 -2 ft 17 kts 58°
2026-04-29 14:51 52.30455 4.77198 -2 ft 16 kts 58°
2026-04-29 14:51 52.30518 4.77360 -2 ft 18 kts 58°
2026-04-29 14:51 52.30591 4.77536 -2 ft 19 kts 45°
2026-04-29 14:51 52.30712 4.77593 -2 ft 18 kts
2026-04-29 14:52 52.30836 4.77605 -2 ft 18 kts
2026-04-29 14:52 52.30955 4.77617 -2 ft 15 kts
2026-04-29 14:52 52.31029 4.77541 -2 ft 13 kts 300°
2026-04-29 14:52 52.31069 4.77411 -2 ft 13 kts 280°
2026-04-29 14:53 52.31074 4.77265 -2 ft 13 kts 273°
2026-04-29 14:53 52.31079 4.77106 -2 ft 15 kts 273°
2026-04-29 14:53 52.31086 4.76940 -2 ft 13 kts 273°
2026-04-29 14:53 52.31050 4.76833 -2 ft 10 kts 216°
2026-04-29 14:54 52.30992 4.76812 -2 ft 6 kts 172°
2026-04-29 14:54 52.30955 4.76849 -2 ft 6 kts 138°
2026-04-29 14:54 52.30933 4.76881 -2 ft 2 kts 137°
2026-04-29 14:54 52.30928 4.76889 -2 ft 0 kts 137°